Total_Precipitation_Accumulation
0.02 0.00 0.00 0.00 0.01 0.03 0.06 0.10 0.06 0.08 0.10 0.05 0.03 0.03 0.06 0.17 0.30 0.32 0.19 0.19 0.10 0.07 0.07 0.07 0.07 0.07 0.07 0.05 0.04 0.05 0.04 0.03 0.02 0.02 0.02 0.02 0.02 0.01 0.01 0.01 0.03 0.02 0.02
0.01 0.01 0.00 0.01 0.00 0.01 0.02 0.07 0.05 0.09 0.11 0.11 0.03 0.03 0.04 0.09 0.23 0.24 0.16 0.20 0.11 0.05 0.04 0.05 0.07 0.08 0.06 0.05 0.04 0.04 0.02 0.02 0.02 0.02 0.02 0.02 0.02 0.02 0.01 0.01 0.02 0.02 0.02
0.03 0.03 0.02 0.02 0.02 0.02 0.03 0.04 0.05 0.06 0.06 0.08 0.05 0.05 0.04 0.04 0.07 0.09 0.07 0.08 0.08 0.06 0.04 0.03 0.05 0.06 0.04 0.04 0.03 0.04 0.02 0.01 0.01 0.01 0.01 0.01 0.01 0.00 0.01 0.00 0.01 0.02 0.02
0.06 0.11 0.07 0.03 0.09 0.08 0.09 0.13 0.11 0.12 0.14 0.13 0.12 0.09 0.07 0.05 0.02 0.02 0.02 0.02 0.03 0.05 0.07 0.07 0.05 0.05 0.04 0.03 0.03 0.03 0.03 0.02 0.01 0.01 0.01 0.01 0.01 0.00 0.00 0.00 0.00 0.01 0.00
0.13 0.19 0.16 0.21 0.24 0.17 0.18 0.20 0.22 0.32 0.30 0.29 0.21 0.14 0.09 0.04 0.01 0.00 0.00 0.00 0.02 0.08 0.14 0.11 0.06 0.05 0.06 0.05 0.05 0.06 0.04 0.03 0.01 0.01 0.02 0.02 0.01 0.01 0.00 0.00 0.00 0.00 0.00
0.24 0.28 0.24 0.28 0.28 0.27 0.30 0.33 0.36 0.37 0.31 0.32 0.16 0.09 0.06 0.03 0.02 0.01 0.00 0.00 0.00 0.01 0.05 0.12 0.15 0.09 0.08 0.08 0.07 0.09 0.08 0.06 0.05 0.03 0.04 0.03 0.03 0.03 0.01 0.00 0.00 0.00 0.00
0.35 0.39 0.32 0.38 0.38 0.33 0.32 0.31 0.29 0.27 0.27 0.33 0.27 0.17 0.06 0.02 0.01 0.00 0.00 0.00 0.00 0.00 0.01 0.05 0.09 0.11 0.11 0.03 0.06 0.12 0.17 0.14 0.11 0.07 0.06 0.05 0.05 0.04 0.03 0.01 0.01 0.01 0.01
0.55 0.51 0.50 0.49 0.44 0.38 0.35 0.31 0.30 0.28 0.27 0.31 0.30 0.26 0.15 0.06 0.02 0.00 0.00 0.00 0.00 0.00 0.00 0.01 0.04 0.10 0.09 0.06 0.12 0.08 0.12 0.13 0.10 0.09 0.07 0.05 0.04 0.03 0.03 0.03 0.02 0.02 0.02
0.84 0.79 0.72 0.62 0.51 0.44 0.43 0.39 0.36 0.34 0.31 0.29 0.29 0.34 0.28 0.15 0.07 0.01 0.01 0.01 0.01 0.02 0.01 0.02 0.03 0.09 0.09 0.07 0.09 0.13 0.07 0.05 0.07 0.11 0.13 0.09 0.03 0.01 0.02 0.02 0.03 0.03 0.03
1.04 0.93 0.80 0.64 0.51 0.44 0.43 0.39 0.36 0.38 0.37 0.32 0.29 0.31 0.31 0.26 0.21 0.08 0.02 0.03 0.07 0.07 0.06 0.04 0.02 0.04 0.05 0.04 0.07 0.21 0.16 0.05 0.07 0.11 0.14 0.13 0.08 0.03 0.02 0.03 0.07 0.09 0.06
0.75 0.68 0.61 0.54 0.44 0.35 0.34 0.37 0.42 0.43 0.40 0.36 0.32 0.28 0.26 0.24 0.22 0.18 0.09 0.14 0.20 0.17 0.10 0.06 0.04 0.03 0.03 0.05 0.10 0.20 0.28 0.16 0.10 0.07 0.06 0.06 0.06 0.05 0.04 0.05 0.12 0.19 0.18
0.38 0.35 0.33 0.33 0.31 0.30 0.29 0.31 0.36 0.40 0.40 0.40 0.38 0.35 0.31 0.26 0.26 0.27 0.23 0.27 0.29 0.25 0.20 0.16 0.13 0.08 0.08 0.09 0.19 0.27 0.22 0.24 0.24 0.17 0.09 0.05 0.03 0.02 0.03 0.04 0.08 0.17 0.26
0.21 0.22 0.21 0.21 0.21 0.22 0.27 0.34 0.37 0.38 0.39 0.38 0.35 0.35 0.36 0.34 0.33 0.35 0.35 0.35 0.29 0.27 0.28 0.26 0.20 0.18 0.14 0.18 0.32 0.29 0.20 0.23 0.23 0.18 0.10 0.06 0.03 0.03 0.02 0.02 0.03 0.08 0.19
0.27 0.26 0.27 0.26 0.24 0.22 0.22 0.31 0.36 0.38 0.40 0.38 0.32 0.33 0.32 0.30 0.29 0.34 0.34 0.30 0.24 0.27 0.34 0.35 0.22 0.18 0.18 0.25 0.34 0.33 0.34 0.29 0.15 0.08 0.05 0.04 0.03 0.03 0.03 0.04 0.04 0.04 0.08
0.30 0.31 0.35 0.39 0.38 0.36 0.36 0.38 0.39 0.41 0.44 0.43 0.38 0.34 0.30 0.25 0.21 0.19 0.20 0.19 0.14 0.14 0.19 0.20 0.12 0.09 0.10 0.18 0.29 0.40 0.56 0.40 0.14 0.05 0.03 0.02 0.02 0.02 0.02 0.03 0.03 0.03 0.06
0.35 0.38 0.40 0.39 0.38 0.34 0.33 0.34 0.38 0.40 0.40 0.35 0.31 0.32 0.30 0.25 0.20 0.15 0.12 0.13 0.12 0.09 0.10 0.11 0.07 0.06 0.09 0.13 0.20 0.25 0.35 0.22 0.07 0.03 0.02 0.02 0.02 0.02 0.03 0.04 0.04 0.04 0.06
0.39 0.41 0.35 0.25 0.18 0.16 0.16 0.19 0.23 0.23 0.24 0.23 0.20 0.19 0.15 0.11 0.10 0.06 0.04 0.05 0.07 0.08 0.08 0.11 0.12 0.11 0.15 0.21 0.22 0.20 0.18 0.12 0.11 0.05 0.03 0.03 0.04 0.05 0.04 0.04 0.06 0.06 0.08
0.38 0.37 0.29 0.19 0.13 0.12 0.11 0.11 0.11 0.14 0.15 0.14 0.12 0.11 0.07 0.04 0.03 0.01 0.00 0.00 0.02 0.06 0.09 0.11 0.13 0.13 0.15 0.18 0.20 0.21 0.18 0.18 0.21 0.15 0.08 0.06 0.05 0.08 0.05 0.04 0.07 0.07 0.11
0.36 0.31 0.24 0.18 0.16 0.17 0.18 0.16 0.09 0.05 0.04 0.05 0.05 0.04 0.02 0.01 0.01 0.00 0.00 0.00 0.01 0.04 0.13 0.17 0.19 0.18 0.17 0.15 0.13 0.18 0.23 0.34 0.40 0.27 0.16 0.10 0.08 0.09 0.10 0.06 0.10 0.17 0.28
0.18 0.20 0.22 0.22 0.20 0.16 0.12 0.06 0.03 0.04 0.03 0.02 0.02 0.01 0.01 0.00 0.00 0.00 0.01 0.01 0.01 0.05 0.10 0.14 0.15 0.13 0.13 0.10 0.10 0.14 0.22 0.37 0.47 0.38 0.30 0.23 0.15 0.11 0.12 0.09 0.09 0.19 0.30
0.13 0.15 0.18 0.19 0.13 0.07 0.04 0.03 0.02 0.02 0.02 0.01 0.00 0.00 0.00 0.00 0.00 0.00 0.00 0.01 0.01 0.02 0.02 0.02 0.02 0.03 0.04 0.04 0.04 0.09 0.18 0.34 0.46 0.50 0.50 0.44 0.35 0.31 0.31 0.28 0.20 0.18 0.20
0.07 0.09 0.09 0.06 0.02 0.01 0.00 0.00 0.01 0.00 0.00 0.00 0.00 0.00 0.00 0.00 0.00 0.00 0.00 0.00 0.00 0.01 0.01 0.02 0.01 0.00 0.01 0.01 0.04 0.11 0.20 0.36 0.53 0.62 0.71 0.77 0.65 0.63 0.65 0.63 0.46 0.24 0.14
0.04 0.06 0.04 0.01 0.00 0.00 0.00 0.00 0.00 0.00 0.00 0.00 0.00 0.00 0.00 0.00 0.00 0.00 0.00 0.00 0.00 0.00 0.00 0.01 0.01 0.01 0.00 0.00 0.03 0.10 0.22 0.49 0.75 0.87 0.91 1.06 0.93 0.81 0.77 0.70 0.57 0.37 0.22
0.06 0.09 0.05 0.02 0.00 0.00 0.00 0.00 0.00 0.00 0.00 0.00 0.00 0.00 0.00 0.00 0.00 0.00 0.00 0.00 0.00 0.00 0.00 0.00 0.01 0.00 0.00 0.01 0.02 0.05 0.12 0.27 0.50 0.61 0.73 0.99 1.06 1.04 0.94 0.70 0.57 0.47 0.35
0.08 0.07 0.05 0.02 0.00 0.00 0.00 0.00 0.00 0.01 0.00 0.00 0.00 0.00 0.00 0.00 0.00 0.00 0.00 0.00 0.00 0.00 0.00 0.00 0.00 0.00 0.00 0.00 0.01 0.03 0.05 0.08 0.15 0.18 0.25 0.55 0.80 0.92 1.07 0.99 0.72 0.60 0.48
0.09 0.05 0.03 0.02 0.00 0.00 0.00 0.00 0.00 0.01 0.02 0.01 0.00 0.00 0.00 0.00 0.00 0.00 0.00 0.01 0.00 0.00 0.00 0.00 0.00 0.00 0.00 0.00 0.00 0.02 0.07 0.09 0.11 0.13 0.10 0.17 0.30 0.48 0.66 0.75 0.71 0.69 0.68